星链-31942 (STARLINK-31942 )

导读 | 豆包AI

STARLINK-31942是美国SpaceX星链星座的成员,于2024年5月28日发射升空,星链项目旨在构建全球卫星互联网星座,为全球用户提供高速宽带网络服务。该卫星延续了星链星座的设计标准,承担卫星通信组网任务,助力完善星链低轨卫星通信网络的覆盖范围与服务能力。

Basic Information
目录编号:
59899
目录名称:
STARLINK-31942
国际标识:
2024-100Q
轨道中心:
EARTH
卫星名称:
星链-31942
卫星全名:
星链-31942 (STARLINK-31942 )
卫星状态:
在轨 (已飞行703 天)
发射日期:
2024-05-28 UTC
国别 :
美国 (US)
星等 :
--
Orbit Information
数据来源 国际轨道数据 AOE轨道数据
星历时间 2026-04-30T20:11:52+0800
15小时前
查看轨道信息
2026-04-28T08:00:00+0800
3天前
查看轨道信息
半长轴 6861.171km 6861.144km
偏心率 0.0001105 0.0001596
轨道倾角 43.002° 43.004°
近地点辐角 272.242° 303.281°
升交点赤经 192.601° 206.769°
平近点角 87.830° 287.105°
近地点 482.275km 481.911km
远地点 483.793km 484.103km
周期 94.266分钟 94.266分钟
每日圈数 15.275853 15.275943
Detailed Information
固有亮度:
5
最大亮度:
1.5
卫星平台:
Starlink v2.0 mini
覆盖范围:
全球
运营商:
太空探索技术公司
运营商所在国:
美国
制造商(研发单位):
太空探索技术公司
制造商所在国:
美国
使用方式:
暂无
Satellite Introduction
星链(Starlink)计划是由太空探索技术公司(SpaceX)提出的一个巨型低轨卫星互联网星座项目,计划在2019年至2024年间在太空搭建由约1.2万颗卫星组成的“星链”网络,其中1584颗将部署在地球上空550千米处的近地轨道,并从2020年开始工作。该卫星仍在工作。
2D Orbit Map
3D Orbit Map
Orbit Altitude Analysis Chart
Orbit Inclination Analysis Chart
Orbit Comprehensive Analysis Chart
View Comprehensive Chart